When you browse on this site, cookies collect data to enhance your experience and personalize the content and advertising you see.
Visit our Privacy Policy to learn more. By continuing to use the site, you agree to this use of cookies and data.
  • In Lithuania
  • List of Countries
  • For 7 days
  • Water Temperature
  • Satellite Maps
  • Weather Map
  • Weather Widgets
  • user-avatar
    Login

    Hourly Weather Adelaide

    Today, 12 December, Wednesday

    Time Temperature Precipitation Wind Pressure Humidity
    00:00 +26°C° 0.1 mm 2 mps 751 mmHg 40%
    01:00 +25°C° 0.1 mm 2 mps 751 mmHg 42%
    02:00 +25°C° 0.1 mm 2 mps 750 mmHg 43%
    03:00 +25°C° 0 mm 1 mps 750 mmHg 47%
    04:00 +25°C° 0.2 mm 1 mps 750 mmHg 49%
    05:00 +26°C° 0.2 mm 2 mps 750 mmHg 52%
    06:00 +27°C° 0.2 mm 2 mps 750 mmHg 54%
    07:00 +28°C° 0 mm 2 mps 750 mmHg 48%
    08:00 +30°C° 0 mm 3 mps 750 mmHg 41%
    09:00 +33°C° 0 mm 3 mps 750 mmHg 37%
    10:00 +34°C° 0 mm 3 mps 749 mmHg 34%
    11:00 +34°C° 0 mm 3 mps 749 mmHg 31%
    12:00 +35°C° 0 mm 3 mps 748 mmHg 29%
    13:00 +35°C° 0 mm 4 mps 748 mmHg 30%
    14:00 +35°C° 0 mm 4 mps 747 mmHg 31%
    15:00 +33°C° 0 mm 4 mps 747 mmHg 36%
    16:00 +32°C° 0.7 mm 4 mps 747 mmHg 40%
    17:00 +30°C° 0.7 mm 5 mps 747 mmHg 43%
    18:00 +30°C° 0.7 mm 5 mps 747 mmHg 46%
    19:00 +27°C° 0.5 mm 6 mps 747 mmHg 54%
    20:00 +24°C° 0.5 mm 6 mps 748 mmHg 61%
    21:00 +22°C° 0.5 mm 6 mps 748 mmHg 68%
    22:00 +21°C° 0.1 mm 7 mps 749 mmHg 72%
    23:00 +20°C° 0.1 mm 7 mps 749 mmHg 76%

    Tomorrow, 13 December, Thursday

    Time Temperature Precipitation Wind Pressure Humidity
    00:00 +18°C° 0.1 mm 7 mps 750 mmHg 80%
    01:00 +18°C° 0.2 mm 8 mps 750 mmHg 79%
    02:00 +17°C° 0.2 mm 8 mps 750 mmHg 77%
    03:00 +17°C° 0.2 mm 9 mps 749 mmHg 76%
    04:00 +16°C° 0.2 mm 9 mps 750 mmHg 73%
    05:00 +16°C° 0.2 mm 9 mps 750 mmHg 70%
    06:00 +16°C° 0.2 mm 10 mps 751 mmHg 68%
    07:00 +16°C° 0.3 mm 10 mps 751 mmHg 64%
    08:00 +16°C° 0.3 mm 10 mps 752 mmHg 60%
    09:00 +16°C° 0.3 mm 11 mps 752 mmHg 57%
    10:00 +16°C° 0.2 mm 11 mps 752 mmHg 54%
    11:00 +17°C° 0.2 mm 11 mps 752 mmHg 51%
    12:00 +17°C° 0.2 mm 11 mps 752 mmHg 48%
    13:00 +17°C° 0.3 mm 11 mps 752 mmHg 51%
    14:00 +16°C° 0.3 mm 11 mps 752 mmHg 53%
    15:00 +14°C° 0.3 mm 12 mps 752 mmHg 56%
    16:00 +14°C° 0.1 mm 11 mps 752 mmHg 58%
    17:00 +14°C° 0.1 mm 11 mps 753 mmHg 61%
    18:00 +13°C° 0.1 mm 10 mps 753 mmHg 64%
    19:00 +13°C° 0.1 mm 10 mps 753 mmHg 65%
    20:00 +13°C° 0.1 mm 10 mps 753 mmHg 66%
    21:00 +13°C° 0.1 mm 10 mps 753 mmHg 67%
    22:00 +13°C° 0.1 mm 10 mps 753 mmHg 69%
    23:00 +13°C° 0.1 mm 10 mps 752 mmHg 71%

    Day after tomorrow, 14 December, Friday

    Time Temperature Precipitation Wind Pressure Humidity
    00:00 +13°C° 0.1 mm 10 mps 752 mmHg 73%
    01:00 +14°C° 0.8 mm 11 mps 751 mmHg 76%
    02:00 +14°C° 0.8 mm 11 mps 751 mmHg 78%
    03:00 +14°C° 0.8 mm 11 mps 750 mmHg 80%
    04:00 +14°C° 0.9 mm 11 mps 750 mmHg 81%
    05:00 +16°C° 0.9 mm 11 mps 750 mmHg 82%
    06:00 +15°C° 0.9 mm 12 mps 750 mmHg 83%
    07:00 +16°C° 0.4 mm 11 mps 750 mmHg 83%
    08:00 +17°C° 0.4 mm 11 mps 750 mmHg 83%
    09:00 +17°C° 0.4 mm 11 mps 750 mmHg 84%
    10:00 +17°C° 0.2 mm 11 mps 749 mmHg 83%
    11:00 +18°C° 0.2 mm 11 mps 749 mmHg 82%
    12:00 +18°C° 0.2 mm 10 mps 749 mmHg 81%
    13:00 +18°C° 0.3 mm 10 mps 749 mmHg 82%
    14:00 +18°C° 0.3 mm 10 mps 749 mmHg 83%
    15:00 +18°C° 0.3 mm 10 mps 749 mmHg 84%
    16:00 +18°C° 0.9 mm 10 mps 749 mmHg 85%
    17:00 +17°C° 0.9 mm 9 mps 749 mmHg 86%
    18:00 +17°C° 0.9 mm 9 mps 749 mmHg 86%
    19:00 +17°C° 0.6 mm 8 mps 750 mmHg 87%
    20:00 +17°C° 0.6 mm 8 mps 750 mmHg 87%
    21:00 +17°C° 0.6 mm 7 mps 750 mmHg 88%
    22:00 +17°C° 0.1 mm 6 mps 750 mmHg 89%
    23:00 +17°C° 0.1 mm 6 mps 750 mmHg 89%

    15 December, Saturday

    Time Temperature Precipitation Wind Pressure Humidity
    00:00 +17°C° 0.1 mm 5 mps 749 mmHg 90%
    01:00 +17°C° 0 mm 5 mps 749 mmHg 90%
    02:00 +18°C° 0 mm 4 mps 749 mmHg 90%
    03:00 +18°C° 0 mm 4 mps 749 mmHg 90%
    04:00 +18°C° 0 mm 4 mps 749 mmHg 89%
    05:00 +18°C° 0 mm 4 mps 749 mmHg 88%
    06:00 +19°C° 0 mm 3 mps 750 mmHg 87%
    07:00 +20°C° 0 mm 3 mps 750 mmHg 79%
    08:00 +21°C° 0 mm 4 mps 750 mmHg 72%
    09:00 +23°C° 0 mm 4 mps 750 mmHg 65%
    10:00 +25°C° 0 mm 4 mps 750 mmHg 60%
    11:00 +26°C° 0 mm 4 mps 750 mmHg 56%
    12:00 +27°C° 0 mm 4 mps 750 mmHg 51%
    13:00 +27°C° 0 mm 5 mps 749 mmHg 53%
    14:00 +26°C° 0 mm 5 mps 749 mmHg 55%
    15:00 +26°C° 0 mm 6 mps 749 mmHg 56%
    16:00 +25°C° 0 mm 5 mps 749 mmHg 62%
    17:00 +23°C° 0 mm 5 mps 749 mmHg 68%
    18:00 +22°C° 0 mm 5 mps 749 mmHg 74%
    19:00 +21°C° 0 mm 5 mps 750 mmHg 78%
    20:00 +21°C° 0 mm 4 mps 750 mmHg 81%
    21:00 +20°C° 0 mm 4 mps 751 mmHg 84%
    22:00 +20°C° 0 mm 4 mps 751 mmHg 85%
    23:00 +20°C° 0 mm 4 mps 751 mmHg 86%

    16 December, Sunday

    Time Temperature Precipitation Wind Pressure Humidity
    00:00 +20°C° 0 mm 3 mps 751 mmHg 87%
    01:00 +19°C° 0 mm 4 mps 751 mmHg 88%
    02:00 +19°C° 0 mm 4 mps 751 mmHg 89%
    03:00 +19°C° 0 mm 4 mps 751 mmHg 90%
    04:00 +19°C° 0.1 mm 4 mps 751 mmHg 89%
    05:00 +19°C° 0.1 mm 3 mps 752 mmHg 89%
    06:00 +19°C° 0.1 mm 3 mps 752 mmHg 88%
    07:00 +20°C° 0 mm 3 mps 753 mmHg 83%
    08:00 +21°C° 0 mm 3 mps 753 mmHg 77%
    09:00 +22°C° 0 mm 3 mps 753 mmHg 71%
    10:00 +23°C° 0 mm 4 mps 753 mmHg 69%
    11:00 +23°C° 0 mm 4 mps 753 mmHg 67%
    12:00 +25°C° 0 mm 4 mps 753 mmHg 65%
    13:00 +25°C° 0 mm 4 mps 753 mmHg 62%
    14:00 +26°C° 0 mm 4 mps 753 mmHg 60%
    15:00 +27°C° 0 mm 5 mps 753 mmHg 58%
    16:00 +25°C° 0 mm 5 mps 753 mmHg 62%
    17:00 +23°C° 0 mm 5 mps 753 mmHg 66%
    18:00 +22°C° 0 mm 5 mps 754 mmHg 70%
    19:00 +21°C° 0 mm 5 mps 754 mmHg 74%
    20:00 +21°C° 0 mm 4 mps 755 mmHg 77%
    21:00 +20°C° 0 mm 4 mps 755 mmHg 81%
    22:00 +19°C° 0 mm 4 mps 755 mmHg 82%
    23:00 +19°C° 0 mm 4 mps 755 mmHg 83%

    17 December, Monday

    Time Temperature Precipitation Wind Pressure Humidity
    00:00 +18°C° 0 mm 3 mps 755 mmHg 84%
    01:00 +18°C° 0 mm 3 mps 755 mmHg 84%
    02:00 +18°C° 0 mm 3 mps 755 mmHg 85%
    03:00 +18°C° 0 mm 3 mps 754 mmHg 86%
    04:00 +18°C° 0 mm 3 mps 755 mmHg 84%
    05:00 +18°C° 0 mm 4 mps 755 mmHg 82%
    06:00 +19°C° 0 mm 4 mps 756 mmHg 81%
    07:00 +20°C° 0 mm 3 mps 756 mmHg 73%
    08:00 +22°C° 0 mm 3 mps 756 mmHg 66%
    09:00 +25°C° 0 mm 3 mps 756 mmHg 59%
    10:00 +27°C° 0 mm 3 mps 755 mmHg 53%
    11:00 +28°C° 0 mm 3 mps 755 mmHg 48%
    12:00 +30°C° 0 mm 3 mps 755 mmHg 42%
    13:00 +30°C° 0 mm 4 mps 755 mmHg 42%
    14:00 +32°C° 0 mm 5 mps 754 mmHg 41%
    15:00 +32°C° 0 mm 5 mps 754 mmHg 40%
    16:00 +29°C° 0 mm 6 mps 754 mmHg 47%
    17:00 +27°C° 0 mm 6 mps 755 mmHg 53%
    18:00 +26°C° 0 mm 7 mps 755 mmHg 59%
    19:00 +24°C° 0 mm 7 mps 755 mmHg 62%
    20:00 +23°C° 0 mm 6 mps 755 mmHg 65%
    21:00 +22°C° 0 mm 6 mps 756 mmHg 68%
    22:00 +22°C° 0 mm 6 mps 755 mmHg 67%
    23:00 +22°C° 0 mm 5 mps 755 mmHg 66%
    Show more